Dewpoint
74 72 71 69 58 47 50 50 51 52 55 58 58 57 58 60 54 55 65 68 68 69 70 71 74 74 74 73 74 75 76 75 76 76 74 74 75 75 76 76 75 75 75 75 74 74 74 73 73
70 70 68 61 43 41 45 49 50 53 56 58 59 59 56 58 61 63 64 67 67 66 67 68 75 74 73 73 74 75 74 74 75 75 74 74 75 75 76 75 75 75 75 74 74 74 73 73 73
66 67 60 44 36 40 45 50 53 55 56 55 57 58 57 59 61 61 65 67 66 67 67 71 74 74 74 74 74 76 75 75 76 75 74 74 74 75 76 75 75 74 74 74 73 73 73 73 73
64 61 56 36 33 41 47 52 55 55 56 56 56 57 60 61 62 63 66 66 65 67 68 72 73 74 74 74 75 75 76 75 76 75 75 75 75 75 74 74 75 74 73 73 73 73 73 73 74
61 52 36 34 38 41 47 53 54 53 54 55 54 56 59 63 64 65 66 66 66 66 68 69 75 75 74 75 75 76 75 75 76 76 75 75 74 74 74 74 74 73 72 72 72 73 73 74 74
50 46 33 32 37 43 47 53 54 54 56 56 55 58 60 64 64 66 67 67 66 67 68 70 75 76 76 76 76 76 76 76 76 76 75 75 74 74 74 74 73 72 72 72 73 73 73 73 74
45 40 36 36 39 42 46 51 51 54 56 54 56 57 62 62 65 67 67 67 66 67 69 70 71 75 76 76 76 76 76 75 75 75 75 75 74 74 73 72 72 72 73 73 73 73 72 73 73
47 41 36 38 38 39 45 49 52 51 55 56 56 56 60 62 65 66 67 66 67 68 69 71 72 73 73 73 76 76 75 74 74 75 74 75 74 73 73 73 73 73 72 73 74 72 72 73 73
49 40 36 37 40 43 47 48 53 54 56 57 57 56 59 61 64 65 66 66 67 67 68 69 70 73 74 72 72 74 74 74 74 74 74 73 69 70 70 73 73 73 72 72 73 73 73 72 73
41 40 36 37 40 45 47 47 53 54 54 55 58 58 60 61 63 64 65 66 66 67 68 68 70 71 71 68 73 73 70 69 69 69 71 68 71 72 69 72 72 72 72 72 73 72 72 72 65
35 38 39 39 39 44 47 49 52 49 51 52 56 59 60 61 63 63 64 65 65 67 67 69 70 72 71 71 70 69 69 68 69 72 72 70 70 70 70 70 69 69 71 68 70 69 67 69 67
30 32 33 38 42 44 46 48 50 50 48 52 55 59 61 61 61 61 63 64 65 66 67 68 70 72 71 77 70 69 68 68 67 69 73 72 70 70 72 69 72 72 69 70 70 68 70 70 69
27 27 28 31 40 41 47 48 48 50 52 54 57 60 60 61 61 62 62 63 65 66 67 68 70 73 73 74 69 69 69 68 67 68 71 70 68 74 71 72 72 71 70 70 70 70 69 70 67
26 27 27 29 37 43 47 49 51 51 52 56 58 60 60 60 61 62 62 63 65 66 67 68 70 73 73 73 74 71 70 68 68 67 68 72 69 75 69 70 69 69 70 70 70 70 70 69 67
27 31 39 38 41 45 47 49 50 52 55 58 58 60 60 60 62 63 63 64 65 66 67 68 70 72 74 74 74 72 69 69 68 68 72 73 74 74 73 70 69 69 73 73 71 72 70 67 65
28 31 32 40 45 47 47 40 49 54 55 57 58 59 60 61 61 63 64 65 66 67 69 70 68 70 72 73 72 71 69 69 69 68 70 74 74 74 73 70 69 69 70 70 69 69 66 64 62
29 28 30 42 46 49 47 40 49 53 54 55 57 57 59 61 62 64 64 65 66 69 70 71 71 70 72 74 72 72 73 77 76 71 71 72 74 73 72 70 69 72 69 73 72 67 67 62 60
28 28 30 33 45 47 46 42 50 53 52 53 57 57 58 59 61 63 65 66 67 69 71 72 71 72 74 78 77 74 73 71 70 70 74 74 75 73 73 71 71 71 73 68 68 69 65 65 61
27 30 30 33 42 45 42 42 46 53 53 52 55 57 58 57 60 63 65 66 67 69 71 73 73 74 76 73 69 69 67 69 70 70 74 74 73 73 74 70 72 72 70 69 69 65 65 59 64
26 28 29 33 42 43 40 42 44 48 53 52 53 56 58 58 59 63 65 65 66 68 71 73 74 75 76 71 72 70 70 68 70 70 73 73 73 74 73 73 71 72 66 69 67 67 61 61 63
26 27 29 33 41 42 39 41 42 43 51 53 52 53 57 58 58 61 63 64 65 68 71 73 75 75 76 76 73 73 72 73 70 70 72 74 74 74 74 74 71 70 65 59 66 66 65 58 64
25 25 27 31 36 35 40 33 37 40 48 51 53 53 53 57 59 60 62 64 64 67 70 73 75 76 76 77 74 76 70 67 65 68 67 70 74 73 73 73 70 68 63 67 65 65 65 65 60
25 25 27 28 33 35 37 36 35 40 41 46 51 53 52 52 57 59 61 62 64 66 68 71 75 76 77 76 77 73 73 67 66 67 72 74 73 73 70 72 69 67 64 68 68 67 67 63 60
23 25 28 29 29 30 34 33 30 33 40 38 44 50 53 51 53 58 60 62 63 65 67 69 74 77 76 76 76 76 75 72 67 70 68 66 66 69 72 71 69 67 65 67 66 66 66 65 64
21 26 27 27 25 26 33 32 33 30 32 35 32 42 52 52 52 55 58 60 63 65 66 68 73 75 76 76 75 76 75 75 74 72 68 67 63 64 69 72 70 65 68 67 66 66 65 65 63
21 23 24 28 22 24 31 30 29 33 32 32 33 39 48 52 50 53 57 59 63 64 66 68 71 74 75 75 76 77 77 73 72 72 67 65 63 62 67 71 69 67 67 67 65 61 61 63 62
21 22 24 23 24 20 21 30 30 31 34 34 35 41 45 51 52 52 56 59 61 64 67 70 73 73 73 73 75 76 77 75 72 74 73 67 70 63 68 69 68 65 66 65 65 60 63 62 63
16 23 22 23 29 26 24 27 28 33 31 30 34 40 45 50 52 51 54 57 60 62 65 68 70 72 72 72 73 73 74 75 75 74 74 73 70 70 68 68 65 65 65 64 66 62 63 63 58
15 17 24 23 24 23 24 24 30 33 34 33 29 41 42 48 52 53 53 55 59 61 63 65 68 70 71 72 74 73 73 73 75 74 75 74 73 71 69 69 66 65 64 65 65 65 62 61 62
14 20 24 23 31 25 24 21 24 29 30 30 29 29 32 46 52 55 55 56 58 61 61 62 65 67 69 72 74 72 73 73 73 75 75 74 74 70 69 68 67 67 64 65 65 63 61 61 60
Lifted_Index
-6 -5 -5 -5 -3 -2 -2 -2 -2 -2 -2 -2 -1 -1 -1 -1 -2 -2 -2 -2 -2 -2 -2 -2 -3 -3 -3 -3 -4 -4 -5 -5 -5 -5 -5 -5 -5 -6 -6 -7 -7 -7 -7 -7 -6 -6 -6 -6 -6
-5 -5 -5 -3 -2 -2 -2 -2 -2 -2 -2 -2 -2 -2 -2 -2 -2 -2 -3 -3 -2 -2 -2 -2 -3 -3 -3 -3 -4 -4 -5 -5 -5 -5 -5 -6 -6 -6 -7 -7 -7 -7 -7 -7 -6 -6 -6 -6 -6
-5 -5 -3 -1 0 -1 -2 -2 -3 -3 -3 -3 -2 -2 -2 -2 -3 -3 -3 -3 -2 -2 -2 -2 -3 -3 -3 -4 -4 -5 -5 -6 -6 -6 -6 -6 -7 -7 -7 -7 -7 -7 -7 -7 -6 -6 -7 -7 -7
-4 -4 -2 0 1 0 -1 -2 -3 -3 -3 -3 -3 -3 -3 -3 -3 -3 -3 -3 -3 -2 -2 -3 -3 -3 -4 -4 -5 -6 -6 -6 -7 -7 -7 -7 -7 -8 -8 -8 -8 -7 -7 -7 -7 -7 -7 -7 -7
-4 -3 -1 0 1 1 -1 -2 -3 -3 -3 -3 -3 -3 -3 -3 -3 -3 -3 -3 -3 -3 -3 -3 -4 -4 -4 -5 -6 -6 -7 -7 -7 -7 -8 -8 -8 -8 -8 -8 -8 -7 -7 -7 -7 -7 -7 -7 -7
-3 -3 -2 -1 0 0 -1 -2 -2 -3 -3 -3 -3 -3 -4 -3 -3 -4 -4 -4 -3 -3 -3 -4 -5 -5 -5 -6 -7 -7 -7 -7 -7 -8 -8 -8 -8 -8 -8 -7 -7 -7 -7 -7 -7 -7 -7 -7 -7
-3 -3 -2 -2 -1 -0 -0 -1 -2 -3 -3 -3 -3 -3 -4 -4 -4 -4 -4 -4 -4 -4 -4 -5 -5 -6 -6 -7 -7 -7 -7 -7 -7 -7 -8 -8 -8 -8 -7 -7 -7 -7 -7 -7 -7 -7 -6 -6 -6
-3 -3 -3 -3 -2 -1 -0 -1 -2 -2 -3 -3 -3 -3 -3 -4 -4 -4 -4 -4 -4 -4 -5 -5 -5 -6 -6 -6 -7 -7 -7 -7 -7 -7 -7 -7 -7 -7 -6 -6 -6 -6 -6 -6 -6 -6 -6 -6 -6
-3 -3 -3 -3 -2 -1 -1 -1 -2 -2 -2 -3 -3 -3 -3 -3 -4 -5 -5 -5 -5 -5 -5 -5 -5 -6 -6 -6 -6 -6 -6 -6 -6 -6 -6 -6 -6 -6 -5 -5 -6 -6 -6 -6 -6 -6 -6 -5 -5
-1 -2 -2 -2 -2 -1 -1 -1 -2 -2 -2 -3 -3 -3 -3 -3 -4 -5 -5 -5 -5 -5 -5 -5 -5 -6 -5 -5 -5 -5 -5 -5 -5 -5 -5 -5 -5 -5 -5 -5 -5 -5 -5 -5 -5 -5 -5 -5 -4
-0 -1 -1 -1 -1 -1 -1 -1 -1 -1 -2 -2 -3 -3 -3 -3 -4 -5 -5 -5 -5 -5 -5 -5 -5 -5 -5 -5 -5 -5 -5 -4 -4 -4 -4 -4 -4 -4 -4 -4 -4 -4 -4 -4 -4 -4 -4 -4 -4
1 1 0 0 -0 -1 -1 -1 -1 -1 -1 -2 -3 -3 -4 -4 -4 -5 -5 -5 -5 -5 -5 -5 -5 -5 -5 -5 -5 -5 -4 -4 -4 -4 -4 -4 -4 -4 -5 -5 -5 -4 -4 -4 -4 -4 -4 -4 -3
2 2 2 1 1 -0 -1 -2 -2 -2 -2 -2 -3 -3 -4 -4 -4 -4 -4 -4 -4 -4 -4 -4 -5 -5 -5 -5 -5 -4 -4 -4 -3 -3 -4 -4 -4 -4 -5 -5 -4 -4 -4 -4 -4 -4 -4 -3 -3
2 2 2 2 1 -0 -1 -2 -2 -2 -2 -3 -3 -3 -4 -4 -4 -4 -4 -4 -4 -4 -4 -4 -4 -5 -5 -5 -5 -4 -4 -4 -4 -3 -4 -4 -4 -4 -5 -4 -4 -4 -4 -4 -4 -4 -4 -3 -3
2 2 1 1 -0 -1 -2 -2 -2 -2 -3 -3 -3 -3 -4 -4 -4 -4 -4 -4 -4 -3 -4 -4 -4 -5 -5 -5 -5 -5 -4 -4 -4 -4 -4 -4 -5 -5 -5 -4 -4 -4 -4 -4 -4 -4 -4 -3 -2
2 1 0 -1 -1 -2 -2 -3 -3 -3 -3 -4 -4 -3 -3 -3 -4 -4 -4 -4 -4 -4 -4 -4 -4 -4 -5 -5 -5 -5 -5 -5 -4 -4 -5 -5 -5 -5 -5 -4 -4 -4 -4 -4 -4 -4 -3 -2 -1
1 1 -0 -1 -2 -2 -3 -3 -3 -3 -4 -4 -3 -3 -3 -3 -3 -4 -4 -4 -4 -4 -4 -4 -4 -4 -5 -5 -5 -5 -5 -5 -5 -5 -5 -5 -5 -5 -5 -5 -4 -4 -4 -4 -4 -3 -2 -1 -0
0 -0 -1 -1 -2 -3 -3 -3 -3 -3 -3 -3 -3 -3 -3 -3 -3 -4 -4 -4 -4 -4 -5 -5 -4 -4 -5 -5 -5 -5 -5 -5 -5 -5 -5 -5 -5 -5 -5 -4 -4 -4 -4 -3 -3 -2 -1 -0 0
-0 -0 -1 -1 -2 -3 -3 -3 -3 -3 -3 -3 -3 -3 -3 -3 -3 -3 -4 -4 -4 -4 -5 -5 -5 -5 -5 -5 -5 -5 -5 -5 -5 -5 -5 -6 -5 -5 -5 -5 -4 -4 -3 -3 -2 -1 -0 0 0
0 -0 -1 -1 -2 -3 -3 -3 -3 -3 -3 -3 -3 -3 -4 -3 -3 -3 -4 -4 -4 -4 -5 -5 -6 -6 -6 -5 -5 -5 -5 -5 -5 -5 -6 -6 -6 -5 -5 -5 -4 -3 -2 -1 -1 -0 0 0 0
1 0 -0 -1 -2 -3 -3 -2 -2 -2 -3 -3 -3 -3 -4 -4 -3 -3 -4 -4 -4 -4 -5 -6 -6 -6 -6 -6 -5 -5 -5 -5 -5 -5 -5 -6 -6 -6 -5 -5 -4 -2 -1 0 -0 0 0 0 0
2 1 -0 -1 -2 -2 -2 -2 -2 -2 -3 -3 -3 -4 -4 -4 -4 -4 -4 -4 -4 -4 -5 -6 -6 -7 -7 -6 -6 -6 -5 -5 -4 -4 -5 -6 -6 -6 -5 -4 -3 -1 0 0 0 0 0 1 1
2 1 0 -0 -1 -2 -2 -2 -1 -1 -2 -3 -3 -4 -4 -4 -4 -4 -4 -4 -4 -4 -5 -6 -6 -7 -7 -7 -7 -6 -6 -5 -4 -4 -5 -5 -5 -5 -5 -4 -2 -1 0 -0 -0 0 1 1 1
2 1 0 -0 -1 -1 -1 -1 -1 -1 -1 -1 -2 -3 -4 -3 -3 -4 -4 -4 -4 -4 -5 -5 -6 -7 -7 -7 -7 -7 -6 -5 -5 -5 -5 -4 -4 -4 -4 -4 -2 -1 -0 -1 -0 0 1 1 1
3 2 0 -0 -1 -1 -1 -1 -0 0 0 -0 -1 -2 -3 -3 -3 -3 -4 -4 -4 -4 -5 -5 -6 -7 -7 -8 -7 -7 -7 -7 -6 -6 -4 -3 -3 -3 -4 -4 -3 -1 -1 -1 -0 1 1 1 1
3 2 0 -0 -1 -1 -1 -0 1 1 1 0 -0 -1 -3 -3 -3 -3 -3 -4 -4 -5 -5 -6 -6 -7 -8 -8 -8 -8 -8 -7 -7 -6 -5 -4 -3 -3 -3 -4 -3 -2 -1 -1 0 1 1 1 1
3 2 1 -0 -1 -1 -1 0 1 1 1 0 -0 -1 -2 -3 -3 -3 -3 -4 -4 -5 -5 -6 -7 -7 -8 -8 -8 -8 -8 -8 -7 -7 -6 -5 -4 -3 -4 -4 -3 -2 -1 -0 1 1 1 1 1
2 2 1 -0 -1 -1 -1 -0 0 1 1 1 -0 -1 -2 -3 -3 -3 -3 -4 -4 -5 -5 -6 -7 -7 -8 -8 -8 -8 -8 -8 -8 -8 -7 -7 -6 -5 -4 -3 -2 -2 -1 -0 0 1 1 1 2
1 1 0 -0 -0 -1 -1 -1 -0 1 1 1 -0 -1 -2 -2 -3 -3 -3 -4 -4 -5 -5 -5 -6 -7 -8 -8 -8 -8 -8 -8 -8 -9 -8 -8 -7 -5 -4 -3 -2 -2 -1 -1 -0 0 1 1 1
1 0 0 0 -0 -0 -1 -1 -0 0 1 1 0 -1 -1 -2 -3 -4 -4 -4 -4 -5 -5 -5 -6 -7 -8 -8 -8 -8 -8 -8 -9 -9 -9 -8 -7 -5 -4 -3 -2 -2 -1 -1 -1 -1 0 1 1